| time (UTC) | temp C | wind direction | speed KPH | gust KPH | rain 1hr cm | rain 24hr cm | rain mn cm | humidity % | barometer mb |
| 20260902013653 | 24 | 105 | 6.4 | 9.7 | 0.00 | 0.00 | 0.00 | 34 | 1007.3 |
| 20260902013155 | 24 | 118 | 4.8 | 8.0 | 0.00 | 0.00 | 0.00 | 34 | 1007.3 |
| 20260902012654 | 24 | 97 | 6.4 | 11.3 | 0.00 | 0.00 | 0.00 | 33 | 1007.3 |
| 20260902012154 | 24 | 106 | 4.8 | 8.0 | 0.00 | 0.00 | 0.00 | 33 | 1007.3 |
| 20260902011654 | 24 | 119 | 4.8 | 9.7 | 0.00 | 0.00 | 0.00 | 33 | 1007.3 |
| 20260902011156 | 24 | 92 | 6.4 | 11.3 | 0.00 | 0.00 | 0.00 | 34 | 1007.3 |
| 20260902010653 | 25 | 113 | 6.4 | 11.3 | 0.00 | 0.00 | 0.00 | 33 | 1007.3 |
| 20260902010154 | 25 | 101 | 3.2 | 4.8 | 0.00 | 0.00 | 0.00 | 33 | 1007.3 |
| 20260902005653 | 25 | 92 | 4.8 | 9.7 | 0.00 | 0.00 | 0.00 | 32 | 1007.3 |
| 20260902005153 | 25 | 119 | 8.0 | 11.3 | 0.00 | 0.00 | 0.00 | 32 | 1007.3 |
| 20260902004654 | 25 | 124 | 4.8 | 9.7 | 0.00 | 0.00 | 0.00 | 31 | 1007.3 |
| 20260902004153 | 25 | 100 | 3.2 | 4.8 | 0.00 | 0.00 | 0.00 | 31 | 1007.3 |
| 20260902003654 | 25 | 152 | 4.8 | 6.4 | 0.00 | 0.00 | 0.00 | 31 | 1007.4 |
| 20260902003154 | 25 | 96 | 9.7 | 17.7 | 0.00 | 0.00 | 0.00 | 31 | 1007.3 |
| 20260902002653 | 25 | 115 | 6.4 | 9.7 | 0.00 | 0.00 | 0.00 | 32 | 1007.4 |
| 20260902002153 | 25 | 124 | 6.4 | 11.3 | 0.00 | 0.00 | 0.00 | 31 | 1007.4 |
| 20260902001653 | 25 | 114 | 6.4 | 9.7 | 0.00 | 0.00 | 0.00 | 31 | 1007.4 |
| 20260902001154 | 25 | 115 | 8.0 | 12.9 | 0.00 | 0.00 | 0.00 | 31 | 1007.5 |
| 20260902000653 | 25 | 89 | 9.7 | 14.5 | 0.00 | 0.00 | 0.00 | 31 | 1007.5 |
| 20260902000155 | 25 | 127 | 8.0 | 14.5 | 0.00 | 0.00 | 0.00 | 31 | 1007.5 |
| 20260901235653 | 25 | 158 | 4.8 | 6.4 | 0.00 | 0.00 | 0.00 | 31 | 1007.5 |
| 20260901235154 | 25 | 90 | 8.0 | 14.5 | 0.00 | 0.00 | 0.00 | 30 | 1007.5 |
| 20260901234654 | 25 | 107 | 9.7 | 14.5 | 0.00 | 0.00 | 0.00 | 30 | 1007.5 |
| 20260901234154 | 25 | 96 | 8.0 | 14.5 | 0.00 | 0.00 | 0.00 | 31 | 1007.5 |
| 20260901233654 | 25 | 100 | 8.0 | 14.5 | 0.00 | 0.00 | 0.00 | 31 | 1007.5 |
| 20260901233153 | 25 | 93 | 8.0 | 14.5 | 0.00 | 0.00 | 0.00 | 31 | 1007.6 |
| 20260901232654 | 25 | 100 | 6.4 | 12.9 | 0.00 | 0.00 | 0.00 | 31 | 1007.6 |
| 20260901232153 | 25 | 138 | 3.2 | 6.4 | 0.00 | 0.00 | 0.00 | 32 | 1007.6 |
| 20260901231655 | 25 | 118 | 6.4 | 11.3 | 0.00 | 0.00 | 0.00 | 32 | 1007.7 |
| 20260901231153 | 25 | 113 | 4.8 | 8.0 | 0.00 | 0.00 | 0.00 | 31 | 1007.7 |
| 20260901230653 | 25 | 119 | 9.7 | 12.9 | 0.00 | 0.00 | 0.00 | 30 | 1007.7 |
| 20260901230153 | 25 | 74 | 4.8 | 8.0 | 0.00 | 0.00 | 0.00 | 32 | 1007.8 |
| 20260901225656 | 25 | 115 | 4.8 | 8.0 | 0.00 | 0.00 | 0.00 | 32 | 1007.8 |
| 20260901225153 | 25 | 121 | 6.4 | 11.3 | 0.00 | 0.00 | 0.00 | 33 | 1007.8 |
| 20260901224654 | 25 | 95 | 9.7 | 12.9 | 0.00 | 0.00 | 0.00 | 32 | 1007.8 |
| 20260901224153 | 25 | 120 | 6.4 | 11.3 | 0.00 | 0.00 | 0.00 | 32 | 1007.9 |
| 20260901223654 | 25 | 101 | 4.8 | 8.0 | 0.00 | 0.00 | 0.00 | 32 | 1007.9 |
| 20260901223153 | 25 | 102 | 6.4 | 12.9 | 0.00 | 0.00 | 0.00 | 32 | 1008.1 |
| 20260901222654 | 25 | 140 | 6.4 | 9.7 | 0.00 | 0.00 | 0.00 | 32 | 1008.2 |
| 20260901222154 | 25 | 124 | 6.4 | 12.9 | 0.00 | 0.00 | 0.00 | 32 | 1008.2 |
| 20260901221653 | 25 | 136 | 6.4 | 9.7 | 0.00 | 0.00 | 0.00 | 32 | 1008.2 |
| 20260901221154 | 25 | 95 | 11.3 | 17.7 | 0.00 | 0.00 | 0.00 | 32 | 1008.3 |
| 20260901220654 | 25 | 111 | 4.8 | 9.7 | 0.00 | 0.00 | 0.00 | 32 | 1008.4 |
| 20260901220155 | 25 | 93 | 4.8 | 8.0 | 0.00 | 0.00 | 0.00 | 32 | 1008.4 |
| 20260901215653 | 25 | 105 | 4.8 | 6.4 | 0.00 | 0.00 | 0.00 | 33 | 1008.5 |
| 20260901215153 | 25 | 114 | 8.0 | 12.9 | 0.00 | 0.00 | 0.00 | 33 | 1008.5 |
| 20260901214653 | 25 | 71 | 11.3 | 14.5 | 0.00 | 0.00 | 0.00 | 32 | 1008.5 |
| 20260901214153 | 25 | 106 | 8.0 | 12.9 | 0.00 | 0.00 | 0.00 | 33 | 1008.6 |
| 20260901213654 | 25 | 100 | 11.3 | 17.7 | 0.00 | 0.00 | 0.00 | 32 | 1008.7 |
| 20260901213153 | 25 | 76 | 12.9 | 16.1 | 0.00 | 0.00 | 0.00 | 32 | 1008.7 |
| 20260901212653 | 24 | 122 | 8.0 | 14.5 | 0.00 | 0.00 | 0.00 | 33 | 1008.7 |
| 20260901212153 | 24 | 91 | 11.3 | 14.5 | 0.00 | 0.00 | 0.00 | 33 | 1008.8 |
| 20260901211655 | 24 | 168 | 9.7 | 14.5 | 0.00 | 0.00 | 0.00 | 33 | 1008.8 |
| 20260901211153 | 24 | 90 | 11.3 | 14.5 | 0.00 | 0.00 | 0.00 | 34 | 1008.7 |
| 20260901210653 | 24 | 87 | 14.5 | 19.3 | 0.00 | 0.00 | 0.00 | 34 | 1008.8 |
| 20260901210154 | 25 | 87 | 8.0 | 11.3 | 0.00 | 0.00 | 0.00 | 34 | 1008.9 |
| 20260901205654 | 25 | 125 | 6.4 | 9.7 | 0.00 | 0.00 | 0.00 | 33 | 1009.1 |
| 20260901205153 | 25 | 126 | 8.0 | 11.3 | 0.00 | 0.00 | 0.00 | 33 | 1009.2 |
| 20260901204653 | 24 | 156 | 3.2 | 6.4 | 0.00 | 0.00 | 0.00 | 34 | 1009.2 |
| 20260901204154 | 24 | 100 | 4.8 | 8.0 | 0.00 | 0.00 | 0.00 | 35 | 1009.3 |
| 20260901203654 | 24 | 164 | 4.8 | 8.0 | 0.00 | 0.00 | 0.00 | 34 | 1009.3 |
| 20260901203154 | 24 | 90 | 6.4 | 11.3 | 0.00 | 0.00 | 0.00 | 36 | 1009.4 |
| 20260901202653 | 24 | 110 | 6.4 | 11.3 | 0.00 | 0.00 | 0.00 | 36 | 1009.4 |
| 20260901202153 | 25 | 113 | 8.0 | 11.3 | 0.00 | 0.00 | 0.00 | 35 | 1009.4 |
| 20260901201653 | 24 | 198 | 3.2 | 4.8 | 0.00 | 0.00 | 0.00 | 34 | 1009.4 |
| 20260901201154 | 25 | 96 | 6.4 | 14.5 | 0.00 | 0.00 | 0.00 | 33 | 1009.5 |
| 20260901200653 | 23 | 79 | 3.2 | 4.8 | 0.00 | 0.00 | 0.00 | 33 | 1009.5 |
| 20260901200154 | 23 | 242 | 6.4 | 9.7 | 0.00 | 0.00 | 0.00 | 35 | 1009.4 |
| 20260901195653 | 23 | 90 | 6.4 | 8.0 | 0.00 | 0.00 | 0.00 | 37 | 1009.6 |
| 20260901195154 | 23 | 89 | 3.2 | 8.0 | 0.00 | 0.00 | 0.00 | 38 | 1009.6 |
| 20260901194653 | 23 | 78 | 4.8 | 6.4 | 0.00 | 0.00 | 0.00 | 39 | 1009.6 |
| 20260901194153 | 23 | 75 | 8.0 | 12.9 | 0.00 | 0.00 | 0.00 | 39 | 1009.7 |
| 20260901193655 | 23 | 85 | 6.4 | 8.0 | 0.00 | 0.00 | 0.00 | 40 | 1009.8 |
| 20260901193158 | 23 | 94 | 6.4 | 9.7 | 0.00 | 0.00 | 0.00 | 39 | 1009.8 |
| 20260901192654 | 23 | 77 | 6.4 | 11.3 | 0.00 | 0.00 | 0.00 | 39 | 1009.8 |
| 20260901192153 | 23 | 98 | 4.8 | 9.7 | 0.00 | 0.00 | 0.00 | 38 | 1009.9 |
| 20260901191654 | 23 | 84 | 6.4 | 9.7 | 0.00 | 0.00 | 0.00 | 37 | 1009.9 |
| 20260901191154 | 23 | 103 | 1.6 | 6.4 | 0.00 | 0.00 | 0.00 | 37 | 1010.1 |
| 20260901190655 | 22 | 184 | 4.8 | 6.4 | 0.00 | 0.00 | 0.00 | 40 | 1010.3 |
| 20260901185655 | 22 | 155 | 6.4 | 9.7 | 0.00 | 0.00 | 0.00 | 38 | 1010.3 |
| 20260901185154 | 22 | 102 | 6.4 | 11.3 | 0.00 | 0.00 | 0.00 | 37 | 1010.3 |
| 20260901184654 | 22 | 128 | 3.2 | 6.4 | 0.00 | 0.00 | 0.00 | 38 | 1010.3 |
| 20260901184154 | 21 | 74 | 8.0 | 11.3 | 0.00 | 0.00 | 0.00 | 39 | 1010.4 |
| 20260901183653 | 21 | 95 | 4.8 | 6.4 | 0.00 | 0.00 | 0.00 | 39 | 1010.4 |
| 20260901183153 | 21 | 89 | 6.4 | 11.3 | 0.00 | 0.00 | 0.00 | 41 | 1010.5 |
| 20260901182653 | 21 | 70 | 4.8 | 6.4 | 0.00 | 0.00 | 0.00 | 41 | 1010.6 |
| 20260901182154 | 21 | 88 | 4.8 | 8.0 | 0.00 | 0.00 | 0.00 | 41 | 1010.6 |
| 20260901181653 | 21 | 92 | 8.0 | 11.3 | 0.00 | 0.00 | 0.00 | 41 | 1010.6 |
| 20260901181154 | 21 | 225 | 1.6 | 3.2 | 0.00 | 0.00 | 0.00 | 41 | 1010.6 |
| 20260901180655 | 21 | 58 | 4.8 | 8.0 | 0.00 | 0.00 | 0.00 | 44 | 1010.7 |
| 20260901180154 | 21 | 141 | 1.6 | 1.6 | 0.00 | 0.00 | 0.00 | 43 | 1010.7 |
| 20260901175653 | 20 | 113 | 1.6 | 6.4 | 0.00 | 0.00 | 0.00 | 45 | 1010.8 |
| 20260901175153 | 21 | 68 | 4.8 | 8.0 | 0.00 | 0.00 | 0.00 | 44 | 1011.0 |
| 20260901174654 | 20 | 49 | 3.2 | 4.8 | 0.00 | 0.00 | 0.00 | 46 | 1011.0 |
| 20260901174153 | 20 | 23 | 1.6 | 4.8 | 0.00 | 0.00 | 0.00 | 45 | 1011.1 |
| 20260901173655 | 20 | 355 | 1.6 | 4.8 | 0.00 | 0.00 | 0.00 | 46 | 1011.1 |
| 20260901173154 | 20 | 337 | 3.2 | 4.8 | 0.00 | 0.00 | 0.00 | 46 | 1011.1 |
| 20260901172653 | 20 | 66 | 3.2 | 4.8 | 0.00 | 0.00 | 0.00 | 47 | 1011.1 |
| 20260901172153 | 20 | 358 | 3.2 | 6.4 | 0.00 | 0.00 | 0.00 | 47 | 1011.1 |
| 20260901171653 | 20 | 25 | 1.6 | 4.8 | 0.00 | 0.00 | 0.00 | 47 | 1011.1 |
| 20260901171153 | 19 | 356 | 1.6 | 3.2 | 0.00 | 0.00 | 0.00 | 46 | 1011.1 |
| 20260901170653 | 18 | 77 | 1.6 | 3.2 | 0.00 | 0.00 | 0.00 | 46 | 1011.1 |
| 20260901170153 | 18 | 37 | 1.6 | 4.8 | 0.00 | 0.00 | 0.00 | 48 | 1011.2 |
| 20260901165655 | 18 | 315 | 1.6 | 3.2 | 0.00 | 0.00 | 0.00 | 49 | 1011.2 |
| 20260901165154 | 18 | 307 | 3.2 | 4.8 | 0.00 | 0.00 | 0.00 | 47 | 1011.3 |
| 20260901164654 | 18 | 300 | 3.2 | 4.8 | 0.00 | 0.00 | 0.00 | 47 | 1011.3 |
| 20260901164155 | 18 | 55 | 1.6 | 4.8 | 0.00 | 0.00 | 0.00 | 47 | 1011.3 |
| 20260901163653 | 18 | 24 | 3.2 | 6.4 | 0.00 | 0.00 | 0.00 | 47 | 1011.3 |
| 20260901163154 | 17 | 49 | 4.8 | 4.8 | 0.00 | 0.00 | 0.00 | 48 | 1011.2 |
| 20260901162654 | 17 | 349 | 3.2 | 6.4 | 0.00 | 0.00 | 0.00 | 48 | 1011.2 |
| 20260901162153 | 17 | 353 | 1.6 | 3.2 | 0.00 | 0.00 | 0.00 | 48 | 1011.3 |
| 20260901161653 | 16 | 62 | 3.2 | 4.8 | 0.00 | 0.00 | 0.00 | 49 | 1011.3 |
| 20260901161154 | 16 | 86 | 1.6 | 4.8 | 0.00 | 0.00 | 0.00 | 52 | 1011.3 |
| 20260901160653 | 15 | 356 | 1.6 | 4.8 | 0.00 | 0.00 | 0.00 | 54 | 1011.3 |
| 20260901155653 | 15 | 339 | 3.2 | 6.4 | 0.00 | 0.00 | 0.00 | 55 | 1011.3 |
| 20260901155153 | 15 | 304 | 4.8 | 6.4 | 0.00 | 0.00 | 0.00 | 56 | 1011.2 |
| 20260901154653 | 15 | 318 | 6.4 | 8.0 | 0.00 | 0.00 | 0.00 | 57 | 1011.2 |
| 20260901154153 | 14 | 306 | 4.8 | 8.0 | 0.00 | 0.00 | 0.00 | 59 | 1011.3 |
| 20260901153654 | 14 | 321 | 6.4 | 8.0 | 0.00 | 0.00 | 0.00 | 58 | 1011.3 |
| 20260901153154 | 13 | 306 | 4.8 | 8.0 | 0.00 | 0.00 | 0.00 | 60 | 1011.4 |
| 20260901152654 | 13 | 276 | 4.8 | 8.0 | 0.00 | 0.00 | 0.00 | 61 | 1011.4 |
| 20260901152154 | 13 | 334 | 3.2 | 4.8 | 0.00 | 0.00 | 0.00 | 62 | 1011.4 |
| 20260901151654 | 12 | 303 | 4.8 | 8.0 | 0.00 | 0.00 | 0.00 | 64 | 1011.5 |
| 20260901151153 | 12 | 315 | 4.8 | 6.4 | 0.00 | 0.00 | 0.00 | 64 | 1011.5 |
| 20260901150653 | 12 | 296 | 6.4 | 9.7 | 0.00 | 0.00 | 0.00 | 65 | 1011.5 |
| 20260901150153 | 11 | 296 | 6.4 | 9.7 | 0.00 | 0.00 | 0.00 | 65 | 1011.6 |
| 20260901145654 | 11 | 341 | 1.6 | 3.2 | 0.00 | 0.00 | 0.00 | 67 | 1011.6 |
| 20260901145153 | 11 | 286 | 4.8 | 9.7 | 0.00 | 0.00 | 0.00 | 68 | 1011.7 |
| 20260901144653 | 11 | 285 | 6.4 | 9.7 | 0.00 | 0.00 | 0.00 | 68 | 1011.7 |
| 20260901144154 | 10 | 281 | 9.7 | 14.5 | 0.00 | 0.00 | 0.00 | 68 | 1011.7 |
| 20260901143654 | 10 | 281 | 4.8 | 8.0 | 0.00 | 0.00 | 0.00 | 69 | 1011.7 |
| 20260901143154 | 10 | 310 | 8.0 | 11.3 | 0.00 | 0.00 | 0.00 | 69 | 1011.7 |
| 20260901142653 | 10 | 289 | 4.8 | 8.0 | 0.00 | 0.00 | 0.00 | 70 | 1011.6 |
| 20260901142154 | 10 | 294 | 4.8 | 8.0 | 0.00 | 0.00 | 0.00 | 70 | 1011.6 |
| 20260901141653 | 10 | 299 | 4.8 | 8.0 | 0.00 | 0.00 | 0.00 | 71 | 1011.7 |
| 20260901141154 | 9 | 288 | 8.0 | 11.3 | 0.00 | 0.00 | 0.00 | 72 | 1011.7 |
| 20260901140653 | 9 | 312 | 4.8 | 6.4 | 0.00 | 0.00 | 0.00 | 73 | 1011.8 |
| 20260901140154 | 8 | 292 | 4.8 | 9.7 | 0.00 | 0.00 | 0.00 | 74 | 1011.8 |
| 20260901135656 | 9 | 301 | 8.0 | 11.3 | 0.00 | 0.00 | 0.00 | 74 | 1011.6 |
| 20260901135153 | 9 | 305 | 4.8 | 6.4 | 0.00 | 0.00 | 0.00 | 72 | 1011.6 |
| 20260901134654 | 9 | 301 | 6.4 | 9.7 | 0.00 | 0.00 | 0.00 | 72 | 1011.6 |
| 20260901134154 | 9 | 278 | 6.4 | 9.7 | 0.00 | 0.00 | 0.00 | 74 | 1011.5 |
| 20260901133654 | 9 | 272 | 6.4 | 8.0 | 0.00 | 0.00 | 0.00 | 73 | 1011.5 |
| 20260901132654 | 8 | 302 | 6.4 | 8.0 | 0.00 | 0.00 | 0.00 | 74 | 1011.5 |
| 20260901132154 | 8 | 291 | 6.4 | 9.7 | 0.00 | 0.00 | 0.00 | 76 | 1011.5 |
| 20260901131653 | 8 | 306 | 4.8 | 6.4 | 0.00 | 0.00 | 0.00 | 76 | 1011.5 |
| 20260901131153 | 8 | 296 | 6.4 | 9.7 | 0.00 | 0.00 | 0.00 | 75 | 1011.4 |
| 20260901130653 | 8 | 276 | 8.0 | 8.0 | 0.00 | 0.00 | 0.00 | 76 | 1011.4 |
| 20260901130154 | 8 | 255 | 6.4 | 8.0 | 0.00 | 0.00 | 0.00 | 76 | 1011.5 |
| 20260901125653 | 8 | 234 | 3.2 | 4.8 | 0.00 | 0.00 | 0.00 | 77 | 1011.5 |
| 20260901125153 | 7 | 283 | 8.0 | 11.3 | 0.00 | 0.00 | 0.00 | 77 | 1011.5 |
| 20260901124653 | 7 | 293 | 11.3 | 12.9 | 0.00 | 0.00 | 0.00 | 77 | 1011.4 |
| 20260901124154 | 7 | 299 | 9.7 | 12.9 | 0.00 | 0.00 | 0.00 | 77 | 1011.4 |
| 20260901123653 | 7 | 300 | 9.7 | 11.3 | 0.00 | 0.00 | 0.00 | 77 | 1011.4 |
| 20260901123153 | 7 | 295 | 8.0 | 9.7 | 0.00 | 0.00 | 0.00 | 77 | 1011.4 |
| 20260901122654 | 7 | 292 | 9.7 | 14.5 | 0.00 | 0.00 | 0.00 | 78 | 1011.4 |
| 20260901122154 | 7 | 296 | 11.3 | 12.9 | 0.00 | 0.00 | 0.00 | 78 | 1011.4 |
| 20260901121655 | 7 | 300 | 12.9 | 14.5 | 0.00 | 0.00 | 0.00 | 78 | 1011.4 |
| 20260901121153 | 7 | 296 | 11.3 | 14.5 | 0.00 | 0.00 | 0.00 | 78 | 1011.4 |
| 20260901120654 | 7 | 285 | 11.3 | 12.9 | 0.00 | 0.00 | 0.00 | 78 | 1011.5 |
| 20260901120154 | 7 | 289 | 8.0 | 11.3 | 0.00 | 0.00 | 0.00 | 78 | 1011.5 |
| 20260901115653 | 8 | 298 | 11.3 | 12.9 | 0.00 | 0.00 | 0.00 | 77 | 1011.6 |
| 20260901115154 | 8 | 299 | 8.0 | 11.3 | 0.00 | 0.00 | 0.00 | 76 | 1011.6 |
| 20260901114654 | 8 | 303 | 9.7 | 12.9 | 0.00 | 0.00 | 0.00 | 76 | 1011.6 |
| 20260901114153 | 8 | 294 | 9.7 | 12.9 | 0.00 | 0.00 | 0.00 | 76 | 1011.6 |
| 20260901113654 | 8 | 298 | 9.7 | 11.3 | 0.00 | 0.00 | 0.00 | 77 | 1011.6 |
| 20260901113154 | 7 | 320 | 8.0 | 9.7 | 0.00 | 0.00 | 0.00 | 77 | 1011.6 |
| 20260901112653 | 7 | 300 | 8.0 | 9.7 | 0.00 | 0.00 | 0.00 | 79 | 1011.7 |
| 20260901112153 | 7 | 320 | 4.8 | 4.8 | 0.00 | 0.00 | 0.00 | 79 | 1011.7 |
| 20260901111655 | 7 | 298 | 4.8 | 8.0 | 0.00 | 0.00 | 0.00 | 79 | 1011.7 |
| 20260901111153 | 8 | 303 | 8.0 | 9.7 | 0.00 | 0.00 | 0.00 | 78 | 1011.6 |
| 20260901110654 | 8 | 303 | 4.8 | 6.4 | 0.00 | 0.00 | 0.00 | 77 | 1011.6 |
| 20260901110153 | 8 | 318 | 3.2 | 4.8 | 0.00 | 0.00 | 0.00 | 77 | 1011.6 |
| 20260901105654 | 8 | 293 | 4.8 | 6.4 | 0.00 | 0.00 | 0.00 | 77 | 1011.6 |
| 20260901105156 | 8 | 304 | 4.8 | 8.0 | 0.00 | 0.00 | 0.00 | 77 | 1011.6 |
| 20260901104653 | 8 | 297 | 9.7 | 11.3 | 0.00 | 0.00 | 0.00 | 75 | 1011.6 |
| 20260901104153 | 9 | 314 | 6.4 | 8.0 | 0.00 | 0.00 | 0.00 | 74 | 1011.5 |
| 20260901103654 | 10 | 45 | 3.2 | 3.2 | 0.00 | 0.00 | 0.00 | 73 | 1011.6 |
| 20260901103153 | 10 | 298 | 1.6 | 3.2 | 0.00 | 0.00 | 0.00 | 72 | 1011.6 |
| 20260901102654 | 10 | 35 | 1.6 | 3.2 | 0.00 | 0.00 | 0.00 | 72 | 1011.6 |
| 20260901102153 | 10 | 284 | 6.4 | 9.7 | 0.00 | 0.00 | 0.00 | 71 | 1011.5 |
| 20260901101657 | 10 | 289 | 6.4 | 8.0 | 0.00 | 0.00 | 0.00 | 72 | 1011.5 |
| 20260901101153 | 10 | 271 | 3.2 | 6.4 | 0.00 | 0.00 | 0.00 | 72 | 1011.6 |
| 20260901100654 | 10 | 300 | 6.4 | 9.7 | 0.00 | 0.00 | 0.00 | 73 | 1011.5 |
| 20260901100153 | 9 | 288 | 8.0 | 11.3 | 0.00 | 0.00 | 0.00 | 74 | 1011.5 |
| 20260901095654 | 9 | 293 | 9.7 | 11.3 | 0.00 | 0.00 | 0.00 | 74 | 1011.5 |
| 20260901095154 | 9 | 275 | 6.4 | 9.7 | 0.00 | 0.00 | 0.00 | 74 | 1011.5 |
| 20260901094654 | 10 | 286 | 6.4 | 9.7 | 0.00 | 0.00 | 0.00 | 74 | 1011.5 |
| 20260901094153 | 10 | 295 | 6.4 | 8.0 | 0.00 | 0.00 | 0.00 | 73 | 1011.6 |
| 20260901093655 | 10 | 303 | 4.8 | 6.4 | 0.00 | 0.00 | 0.00 | 72 | 1011.7 |
| 20260901093154 | 10 | 319 | 4.8 | 6.4 | 0.00 | 0.00 | 0.00 | 72 | 1011.7 |
| 20260901092653 | 10 | 304 | 6.4 | 9.7 | 0.00 | 0.00 | 0.00 | 73 | 1011.6 |
| 20260901092154 | 10 | 299 | 8.0 | 12.9 | 0.00 | 0.00 | 0.00 | 72 | 1011.6 |
| 20260901091654 | 10 | 332 | 4.8 | 8.0 | 0.00 | 0.00 | 0.00 | 71 | 1011.6 |
| 20260901091154 | 10 | 293 | 4.8 | 6.4 | 0.00 | 0.00 | 0.00 | 73 | 1011.6 |
| 20260901090654 | 10 | 279 | 6.4 | 9.7 | 0.00 | 0.00 | 0.00 | 74 | 1011.6 |
| 20260901090154 | 10 | 283 | 8.0 | 12.9 | 0.00 | 0.00 | 0.00 | 75 | 1011.7 |
| 20260901085654 | 10 | 276 | 6.4 | 11.3 | 0.00 | 0.00 | 0.00 | 75 | 1011.8 |
| 20260901085154 | 10 | 289 | 6.4 | 11.3 | 0.00 | 0.00 | 0.00 | 74 | 1011.8 |
| 20260901084653 | 10 | 303 | 8.0 | 12.9 | 0.00 | 0.00 | 0.00 | 74 | 1011.8 |
| 20260901084153 | 10 | 284 | 9.7 | 14.5 | 0.00 | 0.00 | 0.00 | 74 | 1011.8 |
| 20260901083654 | 10 | 277 | 6.4 | 12.9 | 0.00 | 0.00 | 0.00 | 74 | 1011.8 |
| 20260901083154 | 10 | 284 | 3.2 | 6.4 | 0.00 | 0.00 | 0.00 | 73 | 1012.0 |
| 20260901082654 | 10 | 311 | 4.8 | 8.0 | 0.00 | 0.00 | 0.00 | 73 | 1011.8 |
| 20260901082154 | 10 | 320 | 4.8 | 6.4 | 0.00 | 0.00 | 0.00 | 75 | 1012.0 |
| 20260901081654 | 10 | 298 | 4.8 | 6.4 | 0.00 | 0.00 | 0.00 | 76 | 1012.0 |
| 20260901081153 | 10 | 302 | 6.4 | 8.0 | 0.00 | 0.00 | 0.00 | 77 | 1012.0 |
| 20260901080654 | 10 | 296 | 6.4 | 8.0 | 0.00 | 0.00 | 0.00 | 78 | 1012.1 |
| 20260901080153 | 10 | 282 | 4.8 | 6.4 | 0.00 | 0.00 | 0.00 | 78 | 1012.1 |
| 20260901075654 | 10 | 273 | 3.2 | 4.8 | 0.00 | 0.00 | 0.00 | 77 | 1012.1 |
| 20260901075154 | 10 | 250 | 3.2 | 4.8 | 0.00 | 0.00 | 0.00 | 76 | 1012.1 |
| 20260901074657 | 10 | 256 | 6.4 | 8.0 | 0.00 | 0.00 | 0.00 | 75 | 1012.1 |
| 20260901074157 | 10 | 251 | 6.4 | 6.4 | 0.00 | 0.00 | 0.00 | 76 | 1012.2 |
| 20260901073653 | 10 | 316 | 1.6 | 3.2 | 0.00 | 0.00 | 0.00 | 76 | 1012.2 |
| 20260901073154 | 11 | 15 | 1.6 | 3.2 | 0.00 | 0.00 | 0.00 | 74 | 1012.2 |
| 20260901072653 | 11 | 303 | 8.0 | 9.7 | 0.00 | 0.00 | 0.00 | 72 | 1012.1 |
| 20260901072154 | 11 | 289 | 8.0 | 12.9 | 0.00 | 0.00 | 0.00 | 72 | 1012.2 |
| 20260901071654 | 11 | 289 | 8.0 | 11.3 | 0.00 | 0.00 | 0.00 | 74 | 1012.2 |
| 20260901071156 | 11 | 297 | 6.4 | 9.7 | 0.00 | 0.00 | 0.00 | 74 | 1012.3 |
| 20260901070654 | 11 | 16 | 0.0 | 1.6 | 0.00 | 0.00 | 0.00 | 74 | 1012.3 |
| 20260901070154 | 11 | 49 | 3.2 | 4.8 | 0.00 | 0.00 | 0.00 | 74 | 1012.3 |
| 20260901065655 | 11 | 285 | 4.8 | 8.0 | 0.00 | 0.00 | 0.00 | 74 | 1012.2 |
| 20260901065153 | 11 | 260 | 4.8 | 8.0 | 0.00 | 0.00 | 0.00 | 74 | 1012.3 |
| 20260901064654 | 11 | 55 | 1.6 | 1.6 | 0.00 | 0.00 | 0.00 | 74 | 1012.4 |
| 20260901064153 | 11 | 282 | 4.8 | 6.4 | 0.00 | 0.00 | 0.00 | 74 | 1012.4 |
| 20260901063654 | 10 | 302 | 6.4 | 9.7 | 0.00 | 0.00 | 0.00 | 76 | 1012.4 |
| 20260901063154 | 10 | 275 | 6.4 | 8.0 | 0.00 | 0.00 | 0.00 | 76 | 1012.4 |
| 20260901062653 | 10 | 282 | 6.4 | 9.7 | 0.00 | 0.00 | 0.00 | 76 | 1012.3 |
| 20260901062153 | 11 | 283 | 6.4 | 9.7 | 0.00 | 0.00 | 0.00 | 76 | 1012.3 |
| 20260901061654 | 11 | 326 | 4.8 | 6.4 | 0.00 | 0.00 | 0.00 | 74 | 1012.4 |
| 20260901061154 | 11 | 357 | 3.2 | 3.2 | 0.00 | 0.00 | 0.00 | 72 | 1012.4 |
| 20260901060654 | 12 | 45 | 1.6 | 3.2 | 0.00 | 0.00 | 0.00 | 71 | 1012.4 |
| 20260901060153 | 12 | 358 | 1.6 | 3.2 | 0.00 | 0.00 | 0.00 | 71 | 1012.4 |
| 20260901055653 | 12 | 294 | 1.6 | 3.2 | 0.00 | 0.00 | 0.00 | 71 | 1012.4 |
| 20260901055153 | 12 | 38 | 1.6 | 3.2 | 0.00 | 0.00 | 0.00 | 70 | 1012.4 |
| 20260901054655 | 12 | 357 | 0.0 | 1.6 | 0.00 | 0.00 | 0.00 | 71 | 1012.5 |
| 20260901054155 | 12 | 66 | 1.6 | 1.6 | 0.00 | 0.00 | 0.00 | 70 | 1012.5 |
| 20260901053655 | 12 | 294 | 4.8 | 6.4 | 0.00 | 0.00 | 0.00 | 70 | 1012.5 |
| 20260901053154 | 12 | 278 | 8.0 | 11.3 | 0.00 | 0.00 | 0.00 | 70 | 1012.5 |
| 20260901052654 | 12 | 299 | 6.4 | 9.7 | 0.00 | 0.00 | 0.00 | 70 | 1012.5 |
| 20260901052153 | 12 | 311 | 4.8 | 8.0 | 0.00 | 0.00 | 0.00 | 69 | 1012.5 |
| 20260901051653 | 13 | 320 | 4.8 | 6.4 | 0.00 | 0.00 | 0.00 | 66 | 1012.6 |
| 20260901051154 | 13 | 327 | 3.2 | 4.8 | 0.00 | 0.00 | 0.00 | 66 | 1012.6 |
| 20260901050654 | 13 | 334 | 1.6 | 1.6 | 0.00 | 0.00 | 0.00 | 66 | 1012.6 |
| 20260901050154 | 13 | 332 | 1.6 | 3.2 | 0.00 | 0.00 | 0.00 | 65 | 1012.5 |
| 20260901045653 | 13 | 7 | 1.6 | 1.6 | 0.00 | 0.00 | 0.00 | 64 | 1012.5 |
| 20260901045153 | 14 | 66 | 4.8 | 6.4 | 0.00 | 0.00 | 0.00 | 64 | 1012.5 |
| 20260901044654 | 15 | 55 | 4.8 | 6.4 | 0.00 | 0.00 | 0.00 | 61 | 1012.4 |
| 20260901044153 | 15 | 266 | 3.2 | 4.8 | 0.00 | 0.00 | 0.00 | 59 | 1012.4 |
| 20260901043654 | 15 | 239 | 3.2 | 3.2 | 0.00 | 0.00 | 0.00 | 62 | 1012.5 |
| 20260901043153 | 15 | 295 | 1.6 | 1.6 | 0.00 | 0.00 | 0.00 | 61 | 1012.5 |
| 20260901042655 | 15 | 331 | 1.6 | 1.6 | 0.00 | 0.00 | 0.00 | 60 | 1012.5 |
| 20260901042154 | 15 | 60 | 3.2 | 4.8 | 0.00 | 0.00 | 0.00 | 59 | 1012.5 |
| 20260901041653 | 15 | 295 | 1.6 | 1.6 | 0.00 | 0.00 | 0.00 | 58 | 1012.5 |
| 20260901041153 | 16 | 53 | 1.6 | 4.8 | 0.00 | 0.00 | 0.00 | 56 | 1012.5 |
| 20260901040653 | 16 | 77 | 1.6 | 3.2 | 0.00 | 0.00 | 0.00 | 54 | 1012.4 |
| 20260901040153 | 16 | 188 | 1.6 | 1.6 | 0.00 | 0.00 | 0.00 | 53 | 1012.5 |
| 20260901035653 | 16 | 225 | 3.2 | 3.2 | 0.00 | 0.00 | 0.00 | 53 | 1012.5 |
| 20260901035153 | 17 | 72 | 4.8 | 4.8 | 0.00 | 0.00 | 0.00 | 52 | 1012.5 |
| 20260901034653 | 17 | 82 | 1.6 | 1.6 | 0.00 | 0.00 | 0.00 | 51 | 1012.5 |
| 20260901034153 | 17 | 162 | 1.6 | 3.2 | 0.00 | 0.00 | 0.00 | 51 | 1012.4 |
| 20260901033654 | 17 | 140 | 3.2 | 4.8 | 0.00 | 0.00 | 0.00 | 50 | 1012.4 |
| 20260901033153 | 17 | 156 | 1.6 | 3.2 | 0.00 | 0.00 | 0.00 | 50 | 1012.3 |
| 20260901032653 | 17 | 136 | 3.2 | 3.2 | 0.00 | 0.00 | 0.00 | 48 | 1012.3 |
| 20260901032153 | 18 | 106 | 3.2 | 4.8 | 0.00 | 0.00 | 0.00 | 48 | 1012.3 |
| 20260901031654 | 18 | 115 | 1.6 | 4.8 | 0.00 | 0.00 | 0.00 | 47 | 1012.3 |
| 20260901031154 | 18 | 131 | 3.2 | 4.8 | 0.00 | 0.00 | 0.00 | 46 | 1012.2 |
| 20260901030653 | 18 | 131 | 3.2 | 6.4 | 0.00 | 0.00 | 0.00 | 46 | 1012.1 |
| 20260901030156 | 18 | 111 | 4.8 | 8.0 | 0.00 | 0.00 | 0.00 | 45 | 1012.1 |
| 20260901025654 | 18 | 82 | 4.8 | 6.4 | 0.00 | 0.00 | 0.00 | 45 | 1012.1 |
| 20260901025153 | 18 | 93 | 4.8 | 8.0 | 0.00 | 0.00 | 0.00 | 45 | 1012.0 |
| 20260901024653 | 18 | 98 | 3.2 | 4.8 | 0.00 | 0.00 | 0.00 | 45 | 1012.0 |
| 20260901024158 | 19 | 81 | 4.8 | 8.0 | 0.00 | 0.00 | 0.00 | 44 | 1012.0 |
| 20260901023655 | 19 | 69 | 4.8 | 6.4 | 0.00 | 0.00 | 0.00 | 43 | 1012.0 |
| 20260901023154 | 19 | 65 | 3.2 | 4.8 | 0.00 | 0.00 | 0.00 | 43 | 1011.8 |
| 20260901022653 | 20 | 111 | 3.2 | 4.8 | 0.00 | 0.00 | 0.00 | 42 | 1012.0 |
| 20260901022155 | 20 | 100 | 1.6 | 3.2 | 0.00 | 0.00 | 0.00 | 41 | 1012.0 |
| 20260901021654 | 20 | 97 | 3.2 | 6.4 | 0.00 | 0.00 | 0.00 | 41 | 1012.1 |
| 20260901021154 | 20 | 135 | 4.8 | 4.8 | 0.00 | 0.00 | 0.00 | 40 | 1012.1 |
| 20260901020653 | 20 | 105 | 3.2 | 8.0 | 0.00 | 0.00 | 0.00 | 39 | 1012.0 |
| 20260901020154 | 20 | 154 | 4.8 | 4.8 | 0.00 | 0.00 | 0.00 | 39 | 1012.0 |
| 20260901015654 | 21 | 159 | 3.2 | 6.4 | 0.00 | 0.00 | 0.00 | 39 | 1012.0 |
| 20260901015153 | 21 | 140 | 3.2 | 6.4 | 0.00 | 0.00 | 0.00 | 38 | 1012.0 |
| 20260901014654 | 21 | 105 | 4.8 | 8.0 | 0.00 | 0.00 | 0.00 | 38 | 1012.0 |
| 20260901014154 | 21 | 161 | 4.8 | 6.4 | 0.00 | 0.00 | 0.00 | 36 | 1012.0 |